Daggett-Barstow, CA

7:47 AM PDT on April 28, 2017 (GMT -0700)
Barstow-Daggett

Weather History for KDAG - May, 2013

Change the Weather History Date:

Tuesday, May 7, 2013

  Actual Average Record
Temperature  
Mean Temperature 62 °F 71 °F  
Max Temperature 75 °F 86 °F 104 °F (1989)
Min Temperature 50 °F 57 °F 44 °F (1964)
Degree Days  
Heating Degree Days 4    
Cooling Degree Days 0    
Growing Degree Days 12 (Base 50)    
Moisture  
Dew Point 38 °F    
Average Humidity 43    
Maximum Humidity 71    
Minimum Humidity 22    
Precipitation  
Precipitation 0.00 in 0.00 in 0.03 in (1998)
Month to date precipitation 0.01  
Year to date precipitation 1.94  
Sea Level Pressure  
Sea Level Pressure 29.90 in    
Wind  
Wind Speed 16 mph (West)    
Max Wind Speed 25 mph    
Max Gust Speed 33 mph    
Visibility 10 miles    
Events      
T = Trace of Precipitation, MM = Missing Value Source: NWS Daily Summary

Daily Weather History Graph

Daily Weather History Graph

Search for Another Location

Airport or City:

Trip Planner

Search our weather history database for the weather conditions in past years. The results will help you decide how hot, cold, wet, or windy it might be!

Date:

Astronomy

May. 07, 2013 Rise Set
Actual Time 5:50 AM PDT 7:37 PM PDT
Civil Twilight 5:22 AM PDT 8:05 PM PDT
Nautical Twilight 4:49 AM PDT 8:38 PM PDT
Astronomical Twilight 4:14 AM PDT 9:13 PM PDT
Moon 4:21 AM PDT (5/7) 5:45 PM PDT (5/7)
Length of Visible Light 14h 42m
Length of Day
13h 47m
Waning Crescent, 5% of the Moon is Illuminated
May 7
Waning Crescent
May 9
New
May 17
First Quarter
May 24
Full
May 31
Last Quarter

Hourly Weather History & Observations

Time (PDT) Temp. Dew Point Humidity Pressure Visibility Wind Dir Wind Speed Gust Speed Precip Events Conditions
1:50 AM 55.0 °F 42.1 °F 62% 29.88 in 10.0 mi WNW 18.4 mph 26.5 mph N/A   Clear
2:50 AM 54.0 °F 42.1 °F 64% 29.89 in 10.0 mi West 17.3 mph - N/A   Clear
3:50 AM 52.0 °F 41.0 °F 66% 29.89 in 10.0 mi WNW 10.4 mph - N/A   Clear
4:50 AM 51.1 °F 41.0 °F 68% 29.90 in 10.0 mi NW 15.0 mph - N/A   Clear
5:50 AM 50.0 °F 41.0 °F 71% 29.91 in 10.0 mi West 11.5 mph - N/A   Clear
6:50 AM 52.0 °F 42.1 °F 69% 29.93 in 10.0 mi West 9.2 mph - N/A   Clear
7:50 AM 57.0 °F 41.0 °F 55% 29.92 in 10.0 mi West 13.8 mph - N/A   Clear
9:50 AM 64.9 °F 34.0 °F 32% 29.93 in 10.0 mi WSW 18.4 mph 24.2 mph N/A   Mostly Cloudy
10:25 AM 64.4 °F 37.4 °F 37% 29.97 in 10.0 mi WNW 15.0 mph - N/A   Mostly Cloudy
10:50 AM 64.9 °F 37.0 °F 36% 29.93 in 10.0 mi WNW 15.0 mph 24.2 mph N/A   Mostly Cloudy
11:50 AM 68.0 °F 35.1 °F 30% 29.92 in 10.0 mi WSW 15.0 mph 23.0 mph N/A   Partly Cloudy
12:50 PM 70.0 °F 35.1 °F 28% 29.89 in 10.0 mi WSW 12.7 mph 25.3 mph N/A   Clear
1:50 PM 72.0 °F 34.0 °F 25% 29.88 in 10.0 mi SW 16.1 mph - N/A   Mostly Cloudy
2:50 PM 73.9 °F 33.1 °F 22% 29.86 in 10.0 mi WSW 19.6 mph 28.8 mph N/A   Partly Cloudy
3:50 PM 73.9 °F 35.1 °F 24% 29.85 in 10.0 mi WSW 19.6 mph 29.9 mph N/A   Mostly Cloudy
4:50 PM 71.1 °F 37.9 °F 30% 29.86 in 10.0 mi WSW 19.6 mph 31.1 mph N/A   Overcast
5:50 PM 72.0 °F 36.0 °F 27% 29.86 in 10.0 mi WSW 23.0 mph 33.4 mph N/A   Mostly Cloudy
6:50 PM 69.1 °F 37.0 °F 31% 29.87 in 10.0 mi West 25.3 mph 33.4 mph N/A   Clear
7:50 PM 66.0 °F 37.9 °F 36% 29.89 in 10.0 mi WSW 25.3 mph 32.2 mph N/A   Clear
8:50 PM 64.0 °F 39.0 °F 40% 29.90 in 10.0 mi WSW 17.3 mph 26.5 mph N/A   Clear
9:50 PM 63.0 °F 39.9 °F 43% 29.91 in 10.0 mi WSW 19.6 mph 24.2 mph N/A   Clear
10:50 PM 61.0 °F 41.0 °F 48% 29.92 in 10.0 mi WSW 18.4 mph - N/A   Clear
11:50 PM 60.1 °F 41.0 °F 49% 29.94 in 10.0 mi WSW 16.1 mph - N/A   Clear